Location: La Pernelle
(49.6188°N, 1.2999°W)
Time: 07:33:38
(UTC+00:00)

SL-16 R/B - Pass Details

Date: 30 October 2021
Orbit: 842 x 846 km, 71.0° (Epoch: 04 December)

Event Time Altitude Azimuth Distance (km) Brightness Sun altitude
Rises 18:09:44 0° 230° (SW) 3,393 6.3 -14.0°
Reaches altitude 10° 18:12:18 10° 238° (WSW) 2,463 5.6 -14.4°
Maximum altitude 18:17:39 42° 308° (NW) 1,191 3.4 -15.3°
Drops below altitude 10° 18:23:03 10° 20° (NNE) 2,478 4.4 -16.1°
Enters shadow 18:25:28 - 27° (NNE) 3,351 5.0 -16.5°
